Regional Weather Roundup
Issued by NWS Kansas City/Pleasant Hill, MO

Home | Current Version | Previous Version | Graphics & Text | Print | Product List | Glossary Off
Versions: 1 2 3 4 5 6 7 8 9 10 11 12 13 14 15 16 17 18 19 20 21 22 23 24 25 26 27 28 29 30 31 32 33 34 35 36 37 38 39 40 41 42 43 44 45 46 47 48 49 50

000
ASUS43 KEAX 301810
RWREAX

WEATHER ROUNDUP FOR EASTERN KANSAS AND NORTHWEST MISSOURI
NATIONAL WEATHER SERVICE KANSAS CITY/PLEASANT HILL MO
100 PM CDT TUE AUG 30 2016

KSZ040-057-103>105-MOZ028-029-037-043-301900-
...KANSAS CITY METROPOLITAN AREA...

CITY           SKY/WX    TMP DP  RH WIND       PRES   REMARKS
K.C. INTL      MOSUNNY   82  69  64 NE8       30.17F
6HR MIN TEMP:  71; 6HR MAX TEMP:  82; 6HR PCP: TRACE;

K.C. DOWNTOWN  CLOUDY    84  72  67 N7        30.15F
6HR MIN TEMP:  72; 6HR MAX TEMP:  86;

LEES SUMMIT    PTSUNNY   82  71  69 CALM      30.17F
6HR MIN TEMP:  70; 6HR MAX TEMP:  83;

OLATHE - IXD   CLOUDY    81  73  76 N6        30.17F
6HR MIN TEMP:  70; 6HR MAX TEMP:  82;

OLATHE - OJC   CLOUDY    83  71  67 VRB3      30.16F
6HR MIN TEMP:  68; 6HR MAX TEMP:  83;

LAWRENCE       CLOUDY    83  74  74 VRB7      30.15F

$$

MOZ001>008-011>017-020>025-030>033-038>040-044>046-053-054-301900-
...NORTHERN AND CENTRAL MISSOURI...

CITY           SKY/WX    TMP DP  RH WIND       PRES   REMARKS
ST. JOSEPH     MOSUNNY   82  71  69 E5        30.16F
6HR MIN TEMP:  68; 6HR MAX TEMP:  83;

MOSBY          PTCLDY    81  70  69 W3        30.16F
WHITEMAN AFB   MOSUNNY   85  74  69 NW6       30.13F HX  93
6HR MIN TEMP:  71; 6HR MAX TEMP:  85;

CLINTON        MOSUNNY   90  73  58 CALM      30.14F HX  98
SEDALIA        SUNNY     87  74  64 CALM      30.14F HX  95
6HR MIN TEMP:  73; 6HR MAX TEMP:  88;

WARSAW         NOT AVBL
CHILLICOTHE      N/A     82  73  74 CALM      30.16F
6HR MIN TEMP:  72; 6HR MAX TEMP:  83; 6HR PCP:  0.02;

KIRKSVILLE     MOSUNNY   80  70  71 CALM      30.16F
6HR MIN TEMP:  70; 6HR MAX TEMP:  80; 6HR PCP:  0.64;


$$

MOZ041-047>049-056>058-063>065-088>090-097-301900-
...EASTERN AND SOUTHERN MISSOURI...

CITY           SKY/WX    TMP DP  RH WIND       PRES   REMARKS
ST. LOUIS INTL PTSUNNY   91  70  49 NW5       30.11F HX  96
6HR MIN TEMP:  77; 6HR MAX TEMP:  93;

SPIRIT OF STL  PTSUNNY   91  72  53 VRB3      30.09F HX  98
COLUMBIA       CLOUDY    78  71  79 N10       30.14F
JEFFERSON CITY MOSUNNY   85  74  69 NW5       30.11F HX  92
ROLLA          SUNNY     88  70  55 CALM      30.13F HX  93
OSAGE BEACH    MOSUNNY   86  73  65 CALM      30.13F HX  93
SPRINGFIELD    MOSUNNY   91  70  49 N12       30.14F HX  96
BRANSON        PTSUNNY   86  73  66 CALM      30.15F HX  93
JOPLIN         MOSUNNY   89  72  56 VRB3      30.13F HX  96
WEST PLAINS    SUNNY     88  70  55 E6        30.15F HX  93

$$

IAZ060-094-KSZ022-034>040-054-083-096-NEZ052-066-093-301900-
...KANSAS...SOUTHEAST NEBRASKA AND IOWA...

CITY           SKY/WX    TMP DP  RH WIND       PRES   REMARKS
TOPEKA         PTSUNNY   84  73  69 N5        30.16S HX  90
6HR MIN TEMP:  69; 6HR MAX TEMP:  84;

MANHATTAN      PTSUNNY   82  73  74 NE9       30.16F
EMPORIA        SUNNY     84  71  65 CALM      30.16F
CHANUTE        MOSUNNY   89  73  59 MISG      30.13F HX  97
WICHITA        MOSUNNY   89  70  53 VRB3      30.14F HX  94
OMAHA          CLOUDY    76  67  73 SE7       30.18F
LINCOLN        CLOUDY    78  68  71 NE7       30.22F
FALLS CITY     PTSUNNY   77  71  82 E7        30.18F
LAMONI         LGT RAIN  75  72  90 W5        30.18F
DES MOINES     CLOUDY    79  71  76 NW7       30.16S

$$




USA.gov is the U.S. government's official web portal to all federal, state and local government web resources and services.